Location: PACMO
(41.3967°N, 90.3760°W)
Time: 16:36:11
(UTC-05:00)

NOAA 19 - Visible Passes

Search period start: 22 August 2014 00:00
Search period end: 01 September 2014 00:00
Orbit: 844 x 863 km, 98.9° (Epoch: 22 August)

Date Brightness Start Highest point End Pass type
(mag) Time Alt. Az. Time Alt. Az. Time Alt. Az.
22 Aug 5.3 03:06:52 10° NNE 03:12:25 67° ESE 03:12:26 67° ESE visible
22 Aug 6.8 04:48:54 10° NNW 04:52:34 18° WNW 04:54:29 16° W visible
23 Aug 5.7 02:55:53 10° NNE 03:01:09 53° E 03:01:09 53° E visible
23 Aug 6.6 04:37:29 10° NNW 04:41:40 22° WNW 04:43:13 20° W visible
24 Aug 6.1 02:44:58 10° NNE 02:49:53 42° E 02:49:53 42° E visible
24 Aug 6.3 04:26:09 10° N 04:30:44 27° WNW 04:31:56 25° W visible
25 Aug 6.5 02:34:07 10° NNE 02:38:37 33° E 02:38:37 33° E visible
25 Aug 6.0 04:14:53 10° N 04:19:48 33° WNW 04:20:40 32° W visible
26 Aug 6.8 02:23:19 10° NE 02:27:20 27° E 02:27:20 27° E visible
26 Aug 5.7 04:03:40 10° N 04:08:50 41° WNW 04:09:23 40° W visible
27 Aug 7.1 02:12:38 10° NE 02:16:03 21° E 02:16:03 21° E visible
27 Aug 5.5 03:52:29 10° N 03:57:51 51° WNW 03:58:06 50° W visible
28 Aug 7.4 02:02:05 10° NE 02:04:47 17° E 02:04:47 17° E visible
28 Aug 5.2 03:41:21 10° N 03:46:50 63° WNW 03:46:50 63° WNW visible
29 Aug 7.7 01:51:48 10° ENE 01:53:30 13° ENE 01:53:30 13° ENE visible
29 Aug 5.2 03:30:15 10° N 03:35:33 76° NW 03:35:33 76° NW visible
29 Aug 7.2 05:13:46 10° NW 05:15:37 12° NW 05:17:29 10° WNW visible
30 Aug 5.3 03:19:12 10° NNE 03:24:16 74° NNE 03:24:16 74° NNE visible
30 Aug 7.0 05:01:51 10° NNW 05:04:45 15° WNW 05:06:19 13° WNW visible
31 Aug 5.6 03:08:11 10° NNE 03:12:59 61° ENE 03:12:59 61° ENE visible
31 Aug 6.8 04:50:16 10° NNW 04:53:52 18° WNW 04:55:02 17° WNW visible
